Capitol Logistics 945


LPPT
Aeroporto da Portela de Sacavem
Lisbon, PT
EHAM
Schiphol International Airport
Amsterdam, NL

Activity Log

Date Flight Route Aircraft Duration
10/25/2019 CPX945 Not Available B738 2h 52m

Route Details

Aircraft Information
Primary: Boeing 737-800BCF
Backup: Not Available
Route Data
Distance: 943nm
Sched. Duration: 2h 20m
Avg. Duration: 2h 52m (+32m)
Times Flown: 1
Recm'd Route: Not Available
Planned Altitude: 37,000ft
Origin Wx: LPPT 231700Z 25018KT 9999 BKN012 15/14 Q1016 WS R21
Dest. Wx: EHAM 231655Z VRB02KT 9999 -SHRA FEW016 SCT022TCU BKN040 02/01 Q0993 NOSIG
Notes:

Financial History
Total Freight: 44,880lbs
Average Load: 44,880lbs/flt
Fuel Used: 13,237lbs
Avg. Fuel Used: 13,237lbs/flt
Fuel Expense: $11,516
Avg. Fuel Expense: $11,516
Avg. Fuel Cost: $0.87/lbs
Total Gross Income: $89,760
Pilot Pay: $229
Total Expenses: $9,746
Total Revenue: $67,813
Average Revenue: $89,760.00